IAW308 LTFJ-ORBI

Flight info

Callsign IAW308
Flight time 2h 10m
Altitude 35000
Route VICEN T57 VEVUD UT341 BAG UL614 OTKEP UM688 RATVO M688 VAXEN
Aircraft A320/M-SDE3FGHIRWY/LB1

Departure

Time 2026-04-23 12:14
Airport Istanbul Sabiha Gökçen International Airport (LTFJ)

Arrival

Time 2026-04-23 14:25
Airport Baghdad International Airport / New Al Muthana Air Base (ORBI)
Time Latitude Longitude Altitude Speed Heading
2026-04-23 11:37 40.90638 29.31646 321 ft 0 kts 334°
2026-04-23 12:05 40.90616 29.31660 321 ft 4 kts 334°
2026-04-23 12:05 40.90592 29.31676 319 ft 4 kts 330°
2026-04-23 12:05 40.90570 29.31696 319 ft 4 kts 310°
2026-04-23 12:06 40.90558 29.31725 319 ft 4 kts 266°
2026-04-23 12:06 40.90561 29.31742 318 ft 1 kts 244°
2026-04-23 12:06 40.90562 29.31744 319 ft 0 kts 244°
2026-04-23 12:08 40.90559 29.31734 320 ft 1 kts 245°
2026-04-23 12:08 40.90546 29.31700 321 ft 6 kts 244°
2026-04-23 12:08 40.90523 29.31637 321 ft 11 kts 243°
2026-04-23 12:09 40.90481 29.31524 321 ft 14 kts 244°
2026-04-23 12:09 40.90422 29.31440 321 ft 13 kts 179°
2026-04-23 12:09 40.90338 29.31485 321 ft 13 kts 153°
2026-04-23 12:09 40.90267 29.31466 321 ft 12 kts 235°
2026-04-23 12:10 40.90223 29.31349 319 ft 18 kts 244°
2026-04-23 12:10 40.90159 29.31174 321 ft 23 kts 243°
2026-04-23 12:10 40.90088 29.30982 321 ft 23 kts 244°
2026-04-23 12:10 40.90018 29.30787 320 ft 24 kts 244°
2026-04-23 12:11 40.89945 29.30592 320 ft 24 kts 244°
2026-04-23 12:11 40.89874 29.30394 320 ft 24 kts 244°
2026-04-23 12:11 40.89799 29.30196 320 ft 24 kts 244°
2026-04-23 12:11 40.89727 29.29995 320 ft 24 kts 245°
2026-04-23 12:12 40.89655 29.29793 320 ft 24 kts 244°
2026-04-23 12:12 40.89580 29.29594 321 ft 24 kts 244°
2026-04-23 12:12 40.89507 29.29395 321 ft 24 kts 244°
2026-04-23 12:12 40.89433 29.29259 320 ft 14 kts 204°
2026-04-23 12:13 40.89356 29.29274 320 ft 11 kts 155°
2026-04-23 12:13 40.89297 29.29319 322 ft 7 kts 136°
2026-04-23 12:13 40.89291 29.29380 322 ft 13 kts 77°
2026-04-23 12:13 40.89422 29.29742 321 ft 81 kts 64°
2026-04-23 12:14 40.89766 29.30677 323 ft 143 kts 64°
2026-04-23 12:14 40.90272 29.32046 459 ft 176 kts 64°
2026-04-23 12:14 40.90785 29.33467 1320 ft 167 kts 62°
2026-04-23 12:14 40.91290 29.34869 1931 ft 178 kts 62°
2026-04-23 12:15 40.91870 29.36406 2229 ft 199 kts 61°
2026-04-23 12:15 40.92522 29.38138 2481 ft 223 kts 63°
2026-04-23 12:15 40.93232 29.40106 2907 ft 243 kts 68°
2026-04-23 12:15 40.93373 29.42307 3596 ft 252 kts 104°
2026-04-23 12:16 40.92441 29.44350 4248 ft 266 kts 140°
2026-04-23 12:16 40.90848 29.45621 5046 ft 272 kts 156°
2026-04-23 12:16 40.89096 29.46518 5848 ft 275 kts 160°
2026-04-23 12:16 40.87277 29.47352 6634 ft 279 kts 160°
2026-04-23 12:17 40.85441 29.48244 7370 ft 283 kts 159°
2026-04-23 12:17 40.83612 29.49222 8161 ft 286 kts 158°
2026-04-23 12:17 40.81754 29.50297 8929 ft 289 kts 156°
2026-04-23 12:17 40.79913 29.51424 9669 ft 294 kts 154°
2026-04-23 12:18 40.78209 29.52946 10339 ft 300 kts 138°
2026-04-23 12:18 40.76902 29.55141 10585 ft 322 kts 116°
2026-04-23 12:18 40.76257 29.58060 10752 ft 344 kts 100°
2026-04-23 12:18 40.75826 29.61268 10884 ft 366 kts 99°
2026-04-23 12:19 40.75390 29.64651 11207 ft 379 kts 99°
2026-04-23 12:19 40.74950 29.68109 11778 ft 385 kts 99°
2026-04-23 12:19 40.74501 29.71605 12390 ft 388 kts 99°
2026-04-23 12:19 40.74042 29.75127 13006 ft 392 kts 99°
2026-04-23 12:20 40.73569 29.78693 13611 ft 396 kts 100°
2026-04-23 12:20 40.73091 29.82286 14139 ft 400 kts 100°
2026-04-23 12:20 40.72605 29.85916 14659 ft 404 kts 100°
2026-04-23 12:20 40.72112 29.89581 15182 ft 408 kts 100°
2026-04-23 12:21 40.71611 29.93278 15701 ft 412 kts 100°
2026-04-23 12:21 40.71101 29.97011 16226 ft 416 kts 101°
2026-04-23 12:21 40.70586 30.00777 16767 ft 420 kts 101°
2026-04-23 12:21 40.70064 30.04588 17294 ft 424 kts 101°
2026-04-23 12:22 40.69543 30.08424 17815 ft 428 kts 101°
2026-04-23 12:22 40.69014 30.12301 18309 ft 432 kts 101°
2026-04-23 12:22 40.68476 30.16227 18643 ft 438 kts 102°
2026-04-23 12:22 40.67930 30.20198 18998 ft 443 kts 102°
2026-04-23 12:23 40.67374 30.24217 19359 ft 448 kts 103°
2026-04-23 12:23 40.66532 30.28171 19706 ft 450 kts 114°
2026-04-23 12:23 40.65229 30.31908 20065 ft 449 kts 124°
2026-04-23 12:23 40.63506 30.35325 20386 ft 448 kts 133°
2026-04-23 12:24 40.61580 30.38564 20786 ft 451 kts 134°
2026-04-23 12:24 40.59666 30.41804 21108 ft 455 kts 135°
2026-04-23 12:24 40.57721 30.45111 21409 ft 459 kts 135°
2026-04-23 12:24 40.55753 30.48496 21801 ft 463 kts 133°
2026-04-23 12:25 40.54082 30.52123 22184 ft 476 kts 123°
2026-04-23 12:25 40.52814 30.56199 22519 ft 489 kts 114°
2026-04-23 12:25 40.51969 30.60572 22802 ft 496 kts 109°
2026-04-23 12:25 40.51189 30.65004 23110 ft 499 kts 109°
2026-04-23 12:26 40.50399 30.69459 23425 ft 503 kts 109°
2026-04-23 12:26 40.49592 30.73942 23695 ft 505 kts 110°
2026-04-23 12:26 40.48695 30.78399 23928 ft 505 kts 112°
2026-04-23 12:26 40.47689 30.82814 23996 ft 504 kts 114°
2026-04-23 12:27 40.46612 30.87193 24004 ft 503 kts 115°
2026-04-23 12:27 40.45509 30.91545 24001 ft 503 kts 115°
2026-04-23 12:27 40.44403 30.95908 24128 ft 505 kts 115°
2026-04-23 12:27 40.43313 31.00293 24397 ft 506 kts 115°
2026-04-23 12:28 40.42240 31.04708 24684 ft 508 kts 114°
2026-04-23 12:28 40.41184 31.09144 24929 ft 510 kts 114°
2026-04-23 12:28 40.40131 31.13603 25185 ft 512 kts 114°
2026-04-23 12:28 40.39087 31.18012 25428 ft 514 kts 114°
2026-04-23 12:29 40.38055 31.22516 25650 ft 518 kts 110°
2026-04-23 12:29 40.37277 31.27157 25864 ft 522 kts 107°
2026-04-23 12:29 40.36523 31.31820 26121 ft 523 kts 107°
2026-04-23 12:29 40.35769 31.36489 26333 ft 524 kts 107°
2026-04-23 12:30 40.35009 31.41170 26536 ft 526 kts 107°
2026-04-23 12:30 40.34242 31.45865 26744 ft 527 kts 108°
2026-04-23 12:30 40.33472 31.50567 26936 ft 529 kts 108°
2026-04-23 12:30 40.32695 31.55294 27118 ft 530 kts 107°
2026-04-23 12:31 40.31922 31.60001 27406 ft 528 kts 107°
2026-04-23 12:31 40.31148 31.64706 27685 ft 527 kts 107°
2026-04-23 12:31 40.30373 31.69398 27936 ft 527 kts 107°
2026-04-23 12:31 40.29596 31.74090 28218 ft 526 kts 107°
2026-04-23 12:32 40.28821 31.78764 28531 ft 526 kts 107°
2026-04-23 12:32 40.28042 31.83446 28810 ft 525 kts 107°
2026-04-23 12:32 40.27260 31.88120 29101 ft 525 kts 108°
2026-04-23 12:32 40.26462 31.92779 29385 ft 524 kts 109°
2026-04-23 12:33 40.25578 31.97389 29693 ft 521 kts 110°
2026-04-23 12:33 40.24605 32.01955 29976 ft 520 kts 112°
2026-04-23 12:33 40.23577 32.06482 30223 ft 519 kts 112°
2026-04-23 12:33 40.22527 32.11000 30475 ft 517 kts 112°
2026-04-23 12:34 40.21489 32.15500 30750 ft 516 kts 112°
2026-04-23 12:34 40.20472 32.20008 30987 ft 516 kts 112°
2026-04-23 12:34 40.19480 32.24508 31219 ft 516 kts 111°
2026-04-23 12:34 40.18498 32.29027 31460 ft 516 kts 111°
2026-04-23 12:35 40.17523 32.33535 31689 ft 516 kts 111°
2026-04-23 12:35 40.16546 32.38047 31918 ft 515 kts 111°
2026-04-23 12:35 40.15565 32.42546 32189 ft 514 kts 111°
2026-04-23 12:35 40.14577 32.47030 32435 ft 513 kts 111°
2026-04-23 12:36 40.13585 32.51506 32689 ft 513 kts 111°
2026-04-23 12:36 40.12591 32.55976 32905 ft 513 kts 111°
2026-04-23 12:36 40.11606 32.60392 33096 ft 513 kts 111°
2026-04-23 12:36 40.10606 32.64868 33298 ft 513 kts 111°
2026-04-23 12:37 40.09605 32.69344 33572 ft 512 kts 111°
2026-04-23 12:37 40.08609 32.73797 33825 ft 511 kts 111°
2026-04-23 12:37 40.07609 32.78252 34044 ft 511 kts 111°
2026-04-23 12:37 40.06581 32.82680 34250 ft 509 kts 113°
2026-04-23 12:38 40.05436 32.87044 34445 ft 507 kts 115°
2026-04-23 12:38 40.04186 32.91337 34632 ft 505 kts 117°
2026-04-23 12:38 40.02875 32.95580 34820 ft 503 kts 118°
2026-04-23 12:38 40.01545 32.99810 34914 ft 505 kts 118°
2026-04-23 12:39 39.98920 33.08332 34930 ft 507 kts 117°
2026-04-23 12:39 39.96385 33.16920 34928 ft 508 kts 116°
2026-04-23 12:40 39.93873 33.25506 34925 ft 506 kts 116°
2026-04-23 12:40 39.91343 33.34040 34934 ft 505 kts 117°
2026-04-23 12:41 39.88788 33.42561 34937 ft 505 kts 117°
2026-04-23 12:41 39.86223 33.51076 34945 ft 505 kts 117°
2026-04-23 12:42 39.83660 33.59596 34950 ft 506 kts 116°
2026-04-23 12:42 39.81729 33.68464 34952 ft 511 kts 109°
2026-04-23 12:43 39.79936 33.77332 34934 ft 510 kts 110°
2026-04-23 12:43 39.78111 33.86255 34938 ft 511 kts 110°
2026-04-23 12:44 39.75845 33.94941 34951 ft 506 kts 116°
2026-04-23 12:44 39.73411 34.03531 34934 ft 507 kts 116°
2026-04-23 12:45 39.70978 34.12108 34956 ft 505 kts 116°
2026-04-23 12:45 39.68540 34.20672 34965 ft 505 kts 116°
2026-04-23 12:46 39.66102 34.29218 34969 ft 505 kts 116°
2026-04-23 12:46 39.63659 34.37753 34956 ft 504 kts 116°
2026-04-23 12:47 39.61624 34.44823 34956 ft 503 kts 116°
2026-04-23 12:47 39.59171 34.53314 34955 ft 502 kts 116°
2026-04-23 12:48 39.56716 34.61793 34939 ft 502 kts 116°
2026-04-23 12:48 39.54254 34.70263 34951 ft 502 kts 117°
2026-04-23 12:49 39.51789 34.78733 34949 ft 502 kts 117°
2026-04-23 12:49 39.49322 34.87192 34923 ft 502 kts 117°
2026-04-23 12:50 39.46843 34.95644 34933 ft 502 kts 117°
2026-04-23 12:50 39.44370 35.04045 34935 ft 502 kts 117°
2026-04-23 12:51 39.41881 35.12482 34927 ft 502 kts 117°
2026-04-23 12:51 39.39385 35.20917 34918 ft 502 kts 117°
2026-04-23 12:52 39.36927 35.29390 34911 ft 503 kts 116°
2026-04-23 12:52 39.34493 35.37859 34918 ft 503 kts 116°
2026-04-23 12:53 39.32041 35.46330 34894 ft 503 kts 116°
2026-04-23 12:53 39.29568 35.54782 34894 ft 503 kts 117°
2026-04-23 12:54 39.27084 35.63235 34888 ft 503 kts 117°
2026-04-23 12:54 39.24601 35.71686 34883 ft 503 kts 116°
2026-04-23 12:55 39.22117 35.80123 34888 ft 503 kts 117°
2026-04-23 12:55 39.19626 35.88559 34889 ft 503 kts 116°
2026-04-23 12:56 39.17150 35.96925 34876 ft 502 kts 117°
2026-04-23 12:56 39.15041 36.05524 34889 ft 509 kts 104°
2026-04-23 12:57 39.13910 36.14546 34888 ft 510 kts 104°
2026-04-23 12:57 39.12775 36.23557 34883 ft 509 kts 104°
2026-04-23 12:58 39.11619 36.32547 34882 ft 509 kts 104°
2026-04-23 12:58 39.10465 36.41537 34880 ft 509 kts 104°
2026-04-23 12:59 39.09306 36.50510 34878 ft 508 kts 104°
2026-04-23 12:59 39.08138 36.59485 34862 ft 508 kts 104°
2026-04-23 13:00 39.06964 36.68452 34870 ft 508 kts 104°
2026-04-23 13:00 39.05784 36.77411 34876 ft 508 kts 104°
2026-04-23 13:01 39.04607 36.86305 34888 ft 508 kts 104°
2026-04-23 13:01 39.03404 36.95326 34863 ft 509 kts 104°
2026-04-23 13:02 39.02203 37.04236 34859 ft 509 kts 104°
2026-04-23 13:02 39.00986 37.13229 34859 ft 510 kts 104°
2026-04-23 13:03 38.99766 37.22219 34849 ft 510 kts 104°
2026-04-23 13:03 38.98543 37.31214 34851 ft 511 kts 104°
2026-04-23 13:04 38.97311 37.40204 34857 ft 511 kts 104°
2026-04-23 13:04 38.96067 37.49202 34860 ft 512 kts 104°
2026-04-23 13:05 38.94816 37.58208 34851 ft 512 kts 104°
2026-04-23 13:05 38.93564 37.67163 34877 ft 512 kts 104°
2026-04-23 13:06 38.91654 37.80682 34851 ft 513 kts 104°
2026-04-23 13:07 38.90374 37.89707 34840 ft 514 kts 104°
2026-04-23 13:07 38.89089 37.98727 34850 ft 514 kts 104°
2026-04-23 13:08 38.87798 38.07741 34851 ft 514 kts 104°
2026-04-23 13:08 38.86494 38.16756 34834 ft 513 kts 104°
2026-04-23 13:09 38.85192 38.25700 34858 ft 513 kts 104°
2026-04-23 13:09 38.83878 38.34700 34859 ft 513 kts 104°
2026-04-23 13:10 38.82560 38.43699 34884 ft 513 kts 104°
2026-04-23 13:10 38.81234 38.52705 34869 ft 514 kts 104°
2026-04-23 13:11 38.79895 38.61700 34875 ft 514 kts 104°
2026-04-23 13:11 38.78543 38.70718 34877 ft 515 kts 104°
2026-04-23 13:12 38.77201 38.79670 34871 ft 515 kts 104°
2026-04-23 13:12 38.75845 38.88684 34895 ft 515 kts 104°
2026-04-23 13:13 38.74492 38.97704 34898 ft 515 kts 104°
2026-04-23 13:13 38.73167 39.06728 34916 ft 515 kts 104°
2026-04-23 13:14 38.71833 39.15748 34919 ft 515 kts 104°
2026-04-23 13:14 38.70188 39.24612 34949 ft 508 kts 114°
2026-04-23 13:15 38.67714 39.33043 34943 ft 508 kts 115°
2026-04-23 13:15 38.65250 39.41524 34943 ft 508 kts 115°
2026-04-23 13:16 38.62782 39.50002 34947 ft 508 kts 115°
2026-04-23 13:16 38.60317 39.58482 34949 ft 509 kts 115°
2026-04-23 13:17 38.57876 39.66973 34931 ft 509 kts 114°
2026-04-23 13:17 38.55432 39.75459 34938 ft 509 kts 114°
2026-04-23 13:18 38.52971 39.83942 34937 ft 509 kts 115°
2026-04-23 13:18 38.50505 39.92410 34935 ft 509 kts 115°
2026-04-23 13:19 38.48037 40.00870 34945 ft 509 kts 114°
2026-04-23 13:19 38.45558 40.09340 34948 ft 509 kts 115°
2026-04-23 13:20 38.43074 40.17793 34941 ft 509 kts 115°
2026-04-23 13:20 38.40583 40.26241 34954 ft 509 kts 115°
2026-04-23 13:21 38.38089 40.34674 34967 ft 508 kts 115°
2026-04-23 13:21 38.35608 40.43038 34970 ft 508 kts 115°
2026-04-23 13:22 38.33102 40.51448 34969 ft 507 kts 115°
2026-04-23 13:22 38.30593 40.59845 34974 ft 507 kts 115°
2026-04-23 13:23 38.28084 40.68230 34970 ft 507 kts 115°
2026-04-23 13:23 38.25568 40.76610 34957 ft 507 kts 115°
2026-04-23 13:24 38.23035 40.84980 34953 ft 507 kts 115°
2026-04-23 13:24 38.20456 40.93315 34959 ft 507 kts 115°
2026-04-23 13:25 38.17848 41.01649 34946 ft 507 kts 115°
2026-04-23 13:25 38.15240 41.09966 34949 ft 507 kts 115°
2026-04-23 13:26 38.12641 41.18291 34952 ft 507 kts 115°
2026-04-23 13:26 38.10093 41.26656 34956 ft 507 kts 114°
2026-04-23 13:27 38.07554 41.35008 34960 ft 507 kts 114°
2026-04-23 13:27 38.04989 41.43350 34965 ft 507 kts 114°
2026-04-23 13:28 38.02429 41.51615 34958 ft 507 kts 114°
2026-04-23 13:28 37.99852 41.59941 34980 ft 507 kts 114°
2026-04-23 13:29 37.97282 41.68254 34995 ft 506 kts 114°
2026-04-23 13:29 37.94703 41.76550 34976 ft 506 kts 114°
2026-04-23 13:30 37.92131 41.84843 34995 ft 506 kts 111°
2026-04-23 13:30 37.90717 41.93582 34998 ft 510 kts 95°
2026-04-23 13:31 37.90171 42.02530 35013 ft 510 kts 95°
2026-04-23 13:31 37.89596 42.11422 35033 ft 510 kts 95°
2026-04-23 13:32 37.89007 42.20369 35031 ft 510 kts 95°
2026-04-23 13:32 37.88411 42.29336 35028 ft 510 kts 95°
2026-04-23 13:33 37.87818 42.38288 35018 ft 511 kts 95°
2026-04-23 13:33 37.87218 42.47248 35034 ft 510 kts 95°
2026-04-23 13:34 37.86604 42.56180 35052 ft 510 kts 96°
2026-04-23 13:34 37.85458 42.64999 35067 ft 506 kts 109°
2026-04-23 13:35 37.82587 42.72980 35061 ft 499 kts 125°
2026-04-23 13:35 37.78994 42.80489 35067 ft 500 kts 124°
2026-04-23 13:36 37.75402 42.88009 35072 ft 499 kts 126°
2026-04-23 13:36 37.73322 42.91467 35070 ft 491 kts 138°
2026-04-23 13:36 37.70960 42.94583 35055 ft 490 kts 139°
2026-04-23 13:37 37.66223 43.00782 35064 ft 490 kts 139°
2026-04-23 13:37 37.62281 43.05929 35075 ft 491 kts 139°
2026-04-23 13:38 37.57540 43.12120 35069 ft 490 kts 138°
2026-04-23 13:38 37.52794 43.18305 35076 ft 490 kts 139°
2026-04-23 13:39 37.48048 43.24475 35063 ft 490 kts 138°
2026-04-23 13:39 37.43298 43.30639 35063 ft 491 kts 139°
2026-04-23 13:40 37.38546 43.36802 35061 ft 490 kts 139°
2026-04-23 13:40 37.33788 43.42953 35046 ft 490 kts 139°
2026-04-23 13:41 37.29030 43.49087 35054 ft 490 kts 139°
2026-04-23 13:41 37.24271 43.55220 35055 ft 490 kts 139°
2026-04-23 13:42 37.19547 43.61294 35054 ft 490 kts 139°
2026-04-23 13:42 37.14789 43.67405 35046 ft 489 kts 139°
2026-04-23 13:43 37.10025 43.73500 35033 ft 489 kts 139°
2026-04-23 13:43 37.05255 43.79580 35036 ft 489 kts 139°
2026-04-23 13:44 37.00479 43.85665 35032 ft 489 kts 139°
2026-04-23 13:44 36.95714 43.91734 35019 ft 489 kts 139°
2026-04-23 13:45 36.90938 43.97805 35015 ft 489 kts 139°
2026-04-23 13:45 36.86153 44.03863 35027 ft 489 kts 139°
2026-04-23 13:46 36.81397 44.09873 35026 ft 489 kts 139°
2026-04-23 13:46 36.76184 44.15167 35009 ft 479 kts 155°
2026-04-23 13:47 36.70173 44.18473 35014 ft 470 kts 165°
2026-04-23 13:47 36.64042 44.21283 35017 ft 470 kts 165°
2026-04-23 13:48 36.57900 44.24099 35007 ft 470 kts 165°
2026-04-23 13:48 36.51768 44.26911 35005 ft 469 kts 165°
2026-04-23 13:49 36.45645 44.29715 35013 ft 469 kts 165°
2026-04-23 13:49 36.39516 44.32515 35011 ft 469 kts 165°
2026-04-23 13:50 36.33395 44.35313 35017 ft 469 kts 165°
2026-04-23 13:50 36.27277 44.38097 35013 ft 468 kts 165°
2026-04-23 13:51 36.21205 44.40861 35013 ft 467 kts 165°
2026-04-23 13:51 36.15096 44.43638 35013 ft 468 kts 165°
2026-04-23 13:52 36.08990 44.46400 34995 ft 467 kts 166°
2026-04-23 13:52 36.02873 44.49160 34995 ft 467 kts 166°
2026-04-23 13:53 35.96760 44.51918 34997 ft 467 kts 166°
2026-04-23 13:53 35.90653 44.54683 34987 ft 468 kts 166°
2026-04-23 13:54 35.84541 44.57442 34992 ft 468 kts 166°
2026-04-23 13:54 35.78416 44.60188 34978 ft 468 kts 166°
2026-04-23 13:55 35.72291 44.62940 34985 ft 468 kts 166°
2026-04-23 13:55 35.66167 44.65692 34993 ft 469 kts 166°
2026-04-23 13:56 35.60075 44.68412 34995 ft 469 kts 167°
2026-04-23 13:56 35.53941 44.71149 34990 ft 469 kts 167°
2026-04-23 13:57 35.47792 44.73878 34984 ft 469 kts 167°
2026-04-23 13:57 35.41646 44.76605 34988 ft 470 kts 167°
2026-04-23 13:58 35.35489 44.79348 34985 ft 471 kts 167°
2026-04-23 13:58 35.29341 44.82092 34988 ft 471 kts 168°
2026-04-23 13:59 35.23174 44.84814 34995 ft 471 kts 168°
2026-04-23 13:59 35.17009 44.87531 34997 ft 471 kts 168°
2026-04-23 14:00 35.11884 44.89794 34999 ft 471 kts 168°
2026-04-23 14:00 35.04714 44.92958 35003 ft 471 kts 168°
2026-04-23 14:01 34.98546 44.95683 35001 ft 471 kts 168°
2026-04-23 14:01 34.92378 44.98389 35001 ft 471 kts 168°
2026-04-23 14:02 34.86204 45.01090 34971 ft 471 kts 168°
2026-04-23 14:02 34.80029 45.03797 34978 ft 472 kts 168°
2026-04-23 14:03 34.73842 45.06512 34962 ft 472 kts 168°
2026-04-23 14:03 34.67656 45.09210 34979 ft 472 kts 168°
2026-04-23 14:04 34.61469 45.11898 34985 ft 472 kts 168°
2026-04-23 14:04 34.55279 45.14585 34982 ft 472 kts 168°
2026-04-23 14:05 34.49036 45.16828 34986 ft 459 kts 180°
2026-04-23 14:05 34.45904 45.17052 34983 ft 443 kts 193°
2026-04-23 14:05 34.42934 45.16405 34957 ft 427 kts 206°
2026-04-23 14:06 34.37623 45.13489 34961 ft 418 kts 213°
2026-04-23 14:06 34.35012 45.11935 34849 ft 418 kts 213°
2026-04-23 14:06 34.32404 45.10375 34609 ft 418 kts 213°
2026-04-23 14:06 34.29796 45.08814 34375 ft 419 kts 213°
2026-04-23 14:07 34.27182 45.07252 34128 ft 419 kts 213°
2026-04-23 14:07 34.21915 45.04127 32396 ft 423 kts 213°
2026-04-23 14:07 34.19296 45.02581 31484 ft 425 kts 212°
2026-04-23 14:08 34.16629 45.01009 30572 ft 427 kts 212°
2026-04-23 14:08 34.13947 44.99429 29555 ft 431 kts 212°
2026-04-23 14:08 34.11243 44.97831 28481 ft 433 kts 212°
2026-04-23 14:08 34.08525 44.96223 27447 ft 435 kts 211°
2026-04-23 14:09 34.05797 44.94610 26328 ft 439 kts 211°
2026-04-23 14:09 34.03039 44.92983 25168 ft 443 kts 210°
2026-04-23 14:09 34.00259 44.91345 24057 ft 447 kts 210°
2026-04-23 14:09 33.97456 44.89693 22907 ft 450 kts 209°
2026-04-23 14:10 33.94690 44.88070 22071 ft 445 kts 209°
2026-04-23 14:10 33.91918 44.86447 21257 ft 441 kts 209°
2026-04-23 14:10 33.89170 44.84842 20449 ft 438 kts 209°
2026-04-23 14:10 33.86442 44.83246 19641 ft 435 kts 209°
2026-04-23 14:11 33.83730 44.81657 18944 ft 432 kts 208°
2026-04-23 14:11 33.81036 44.80078 18165 ft 430 kts 208°
2026-04-23 14:11 33.78350 44.78505 17425 ft 427 kts 208°
2026-04-23 14:11 33.75702 44.76958 16705 ft 422 kts 208°
2026-04-23 14:12 33.73064 44.75416 16118 ft 417 kts 208°
2026-04-23 14:12 33.70479 44.73910 15607 ft 410 kts 208°
2026-04-23 14:12 33.67927 44.72421 15038 ft 406 kts 208°
2026-04-23 14:12 33.65401 44.70945 14464 ft 402 kts 208°
2026-04-23 14:13 33.62897 44.69477 13896 ft 398 kts 208°
2026-04-23 14:13 33.60418 44.68024 13280 ft 395 kts 208°
2026-04-23 14:13 33.57961 44.66589 12648 ft 391 kts 208°
2026-04-23 14:13 33.55523 44.65172 12026 ft 387 kts 208°
2026-04-23 14:14 33.53146 44.63794 11418 ft 382 kts 208°
2026-04-23 14:14 33.50760 44.62408 11147 ft 382 kts 208°
2026-04-23 14:14 33.48337 44.61002 10982 ft 381 kts 208°
2026-04-23 14:14 33.45952 44.59617 10808 ft 380 kts 208°
2026-04-23 14:15 33.43576 44.58239 10640 ft 379 kts 208°
2026-04-23 14:15 33.41236 44.56883 10472 ft 378 kts 208°
2026-04-23 14:15 33.38871 44.55514 10307 ft 377 kts 208°
2026-04-23 14:15 33.36511 44.54149 10130 ft 376 kts 208°
2026-04-23 14:16 33.34159 44.52789 9896 ft 375 kts 208°
2026-04-23 14:16 33.31796 44.51421 8986 ft 378 kts 208°
2026-04-23 14:16 33.29462 44.50070 8481 ft 368 kts 207°
2026-04-23 14:16 33.27152 44.48818 7827 ft 364 kts 200°
2026-04-23 14:17 33.24668 44.48306 7157 ft 362 kts 186°
2026-04-23 14:17 33.22189 44.48095 6467 ft 360 kts 185°
2026-04-23 14:17 33.19669 44.47880 5737 ft 357 kts 185°
2026-04-23 14:17 33.17248 44.47667 5020 ft 345 kts 185°
2026-04-23 14:18 33.14929 44.47435 4549 ft 322 kts 185°
2026-04-23 14:18 33.12785 44.47207 4292 ft 297 kts 185°
2026-04-23 14:18 33.10809 44.46995 4050 ft 275 kts 185°
2026-04-23 14:18 33.08983 44.46796 3888 ft 254 kts 185°
2026-04-23 14:19 33.07314 44.46406 3735 ft 238 kts 205°
2026-04-23 14:19 33.06092 44.45180 3590 ft 229 kts 236°
2026-04-23 14:19 33.05428 44.43470 3471 ft 228 kts 257°
2026-04-23 14:19 33.05294 44.41596 3372 ft 228 kts 276°
2026-04-23 14:20 33.05700 44.39778 3287 ft 228 kts 297°
2026-04-23 14:20 33.06602 44.38234 3179 ft 227 kts 317°
2026-04-23 14:20 33.07878 44.37142 3079 ft 226 kts 332°
2026-04-23 14:20 33.09245 44.36214 3003 ft 225 kts 331°
2026-04-23 14:21 33.10608 44.35285 3008 ft 226 kts 331°
2026-04-23 14:21 33.11977 44.34351 2962 ft 227 kts 331°
2026-04-23 14:21 33.13344 44.33417 2726 ft 226 kts 331°
2026-04-23 14:21 33.14707 44.32485 2443 ft 225 kts 331°
2026-04-23 14:22 33.16059 44.31560 2156 ft 222 kts 332°
2026-04-23 14:22 33.17348 44.30678 1880 ft 210 kts 332°
2026-04-23 14:22 33.18567 44.29843 1644 ft 196 kts 331°
2026-04-23 14:22 33.19716 44.29056 1373 ft 185 kts 332°
2026-04-23 14:23 33.20793 44.28319 1142 ft 172 kts 332°
2026-04-23 14:23 33.21804 44.27637 925 ft 162 kts 332°
2026-04-23 14:23 33.22752 44.26986 726 ft 153 kts 331°
2026-04-23 14:23 33.23661 44.26358 525 ft 149 kts 331°
2026-04-23 14:24 33.24562 44.25739 333 ft 148 kts 330°
2026-04-23 14:24 33.25451 44.25128 167 ft 147 kts 330°
2026-04-23 14:24 33.26274 44.24565 141 ft 120 kts 330°
2026-04-23 14:24 33.26840 44.24176 141 ft 71 kts 330°
2026-04-23 14:25 33.27129 44.23975 139 ft 35 kts 328°
2026-04-23 14:25 33.27258 44.23866 137 ft 30 kts 317°
2026-04-23 14:25 33.27355 44.23719 138 ft 17 kts 304°
2026-04-23 14:25 33.27396 44.23620 139 ft 12 kts 282°
2026-04-23 14:26 33.27381 44.23535 139 ft 11 kts 249°
2026-04-23 14:26 33.27335 44.23423 139 ft 18 kts 240°
2026-04-23 14:26 33.27268 44.23285 140 ft 20 kts 240°
2026-04-23 14:26 33.27214 44.23172 139 ft 11 kts 239°
2026-04-23 14:27 33.27161 44.23150 139 ft 9 kts 165°
2026-04-23 14:27 33.27108 44.23225 139 ft 12 kts 120°
2026-04-23 14:27 33.27073 44.23294 139 ft 9 kts 121°
2026-04-23 14:27 33.27032 44.23303 139 ft 6 kts 200°
2026-04-23 14:28 33.27002 44.23281 139 ft 5 kts 217°
2026-04-23 14:28 33.26979 44.23249 139 ft 7 kts 237°
2026-04-23 14:28 33.26966 44.23222 139 ft 1 kts 239°
2026-04-23 14:28 33.26964 44.23219 139 ft 2 kts 239°
2026-04-23 14:29 33.26964 44.23218 139 ft 0 kts 239°